Wind_Speed
5 4 3 4 4 6 6 8 9 10 12 10 11 11 11 10 10 12 14 15 16 17 17 18 18 18 19 21 23 24 26 24 25 28 29 31 31 32 33 34 35 36 36
8 4 3 3 5 5 6 6 7 9 10 11 10 11 11 10 9 12 14 17 18 18 18 18 19 21 20 19 21 22 25 24 22 20 24 11 21 30 33 33 37 36 34
10 6 4 3 2 3 4 5 7 8 10 12 10 11 9 9 12 15 16 19 19 20 20 20 21 20 19 20 21 22 22 25 25 21 11 6 10 12 26 35 38 38 37
6 6 6 5 3 2 4 5 6 9 10 11 11 12 12 13 14 15 16 16 17 18 19 22 22 21 21 19 21 22 25 23 23 24 21 24 21 6 10 26 31 38 39
11 7 5 4 4 3 4 5 6 9 10 11 12 11 12 13 14 16 18 17 17 17 18 22 22 22 22 22 22 23 24 25 25 23 24 26 28 28 11 11 8 27 33
7 6 5 5 5 5 5 6 7 8 10 10 10 11 12 13 14 17 17 19 18 17 18 23 22 22 22 23 23 23 23 24 26 27 26 24 16 14 11 9 15 19 25
9 7 6 5 5 5 6 6 7 7 8 9 10 11 11 11 12 15 17 19 20 20 21 23 23 24 23 24 24 24 22 23 26 27 28 28 28 27 25 21 15 12 23
7 6 4 4 5 5 6 6 7 7 8 9 9 10 10 11 10 12 14 15 17 19 21 23 23 24 24 26 25 24 24 24 28 30 30 29 28 28 26 26 17 15 14
8 6 6 5 5 6 6 7 7 7 8 9 9 9 10 10 10 11 13 14 16 19 21 22 24 24 26 26 26 23 25 25 26 29 29 28 28 28 27 28 30 14 15
10 7 5 4 5 6 6 6 6 7 8 9 8 9 9 10 11 11 13 14 16 19 21 23 23 24 26 27 26 24 25 27 26 27 29 28 29 29 26 26 25 25 21
9 7 5 4 5 5 5 5 6 7 7 7 8 9 11 11 11 11 13 14 16 18 20 22 24 25 28 28 26 25 26 27 29 29 29 29 32 29 26 26 25 21 23
6 6 6 5 4 4 5 5 5 6 7 7 7 9 11 11 11 12 14 15 16 18 20 21 24 26 29 28 27 26 25 26 28 29 29 30 35 30 27 25 23 22 23
8 4 4 3 3 3 4 5 5 6 6 6 8 10 11 11 12 13 13 15 16 18 19 21 23 26 29 29 26 24 25 25 26 27 27 30 34 31 31 27 24 25 24
10 7 5 4 3 2 3 3 2 4 4 5 8 8 10 11 12 12 12 14 15 17 19 20 22 26 27 30 27 24 24 25 26 27 27 30 35 32 31 26 28 28 23
11 9 5 6 5 3 1 2 1 1 1 3 6 8 9 9 10 11 12 12 13 14 17 19 20 26 27 32 28 25 24 26 26 30 28 29 34 33 30 29 29 32 26
13 11 10 9 6 6 5 2 2 1 2 4 5 7 9 10 10 11 12 12 12 13 14 19 19 22 28 31 26 23 24 25 27 31 34 33 37 38 32 31 30 30 32
14 12 11 10 8 6 4 3 2 2 4 5 6 9 9 10 12 12 12 12 13 14 15 18 20 20 31 33 28 21 23 23 27 30 35 33 38 41 35 33 31 31 34
15 13 13 11 9 7 5 4 4 4 5 7 7 8 10 12 11 12 13 12 13 14 14 17 20 20 27 33 32 25 21 22 24 26 33 35 37 42 38 32 34 30 33
16 15 15 13 10 8 6 6 6 6 7 7 8 10 11 11 11 12 12 12 12 13 14 16 18 21 23 31 33 27 22 24 23 25 28 36 35 39 39 36 33 30 33
18 17 16 14 11 8 7 8 7 7 6 8 8 9 10 10 10 11 11 11 11 12 12 13 16 17 21 27 30 29 24 23 23 23 25 30 34 34 36 33 32 30 32
19 18 16 13 12 8 9 9 7 6 6 6 7 8 8 9 9 9 10 10 10 11 12 12 13 16 18 22 26 28 23 21 20 21 24 27 32 31 34 34 33 30 27
20 17 15 14 13 11 10 9 7 7 6 7 8 7 7 7 8 9 9 10 10 10 11 12 12 14 16 20 23 24 23 22 17 19 21 24 27 27 29 32 32 30 28
18 16 16 15 13 12 10 9 8 7 7 7 6 5 6 6 7 8 9 9 10 10 11 12 13 14 16 18 21 22 23 22 18 18 19 22 23 25 26 29 31 32 33
15 16 16 15 14 13 11 10 10 8 6 4 3 3 4 5 6 6 7 8 10 10 11 12 14 14 15 19 22 21 22 23 19 20 19 20 21 22 24 26 28 29 29
17 16 15 15 14 13 12 10 9 8 6 4 3 1 1 2 3 4 6 5 7 8 8 10 11 13 15 20 22 22 21 26 24 18 18 21 23 24 26 27 27 26 28
18 18 17 16 15 13 12 10 8 7 6 5 3 1 1 1 2 2 2 6 5 7 8 9 9 8 11 16 19 19 17 20 20 17 19 21 22 23 24 25 25 26 28
Wind_Direction
169 163 119 86 58 42 28 21 15 10 8 5 4 355 351 345 351 353 354 356 355 354 353 347 345 342 334 326 322 318 312 309 310 304 300 275 262 250 241 235 235 232 230
193 171 141 88 52 38 27 21 18 15 13 7 360 347 336 334 342 349 353 353 354 354 354 352 348 342 334 330 324 321 318 313 311 307 314 280 272 245 238 237 236 240 231
194 174 162 112 84 56 34 25 24 19 17 11 1 354 347 348 350 351 351 351 351 352 353 353 347 341 336 327 324 322 316 314 310 310 303 311 269 276 240 234 233 234 232
197 171 175 140 97 76 49 32 30 24 19 14 8 2 357 354 348 344 343 346 351 351 350 350 346 340 335 328 325 321 316 311 306 309 288 282 290 304 288 243 228 228 233
190 173 160 123 88 71 56 36 28 28 22 14 13 4 357 352 345 346 345 349 349 351 350 348 345 340 335 329 325 323 317 312 304 301 300 297 296 291 278 273 276 245 231
171 162 144 132 85 63 46 38 27 27 17 12 9 9 360 354 350 350 348 348 345 346 347 346 344 339 335 331 327 324 317 312 307 304 298 286 279 287 294 305 276 262 258
174 170 149 109 79 61 48 33 26 22 13 11 11 9 1 357 352 352 347 345 343 344 345 344 342 340 336 335 331 329 327 324 319 312 303 294 284 281 278 283 285 278 262
159 145 113 97 84 57 43 35 22 16 10 8 7 6 1 357 354 350 347 344 340 341 343 345 344 342 341 339 337 336 337 333 328 321 310 301 292 278 265 267 273 286 256
154 135 109 77 55 42 35 26 19 17 12 6 3 2 357 355 355 353 350 347 344 346 347 349 347 347 346 344 342 341 340 340 334 330 331 326 317 321 310 273 267 279 272
157 133 109 82 55 43 31 25 17 18 8 2 0 360 356 359 358 356 355 354 351 352 354 354 351 351 351 349 348 347 345 345 341 340 337 338 333 322 316 314 301 303 279
160 141 129 96 68 48 38 36 20 16 10 0 354 1 1 2 1 1 0 358 356 358 360 358 355 355 356 353 353 354 353 351 345 345 343 344 341 334 330 328 321 317 312
147 142 124 118 79 61 49 45 22 15 8 352 353 2 5 3 4 6 5 4 4 4 3 2 1 359 359 356 360 359 358 356 353 349 349 349 348 344 342 334 334 332 324
143 125 115 106 101 82 59 44 18 8 359 354 360 6 4 5 7 7 6 7 10 10 9 7 6 3 2 360 2 2 2 2 357 356 354 358 355 350 348 350 348 343 333
159 159 163 149 126 89 80 53 351 14 15 7 12 2 8 9 10 8 9 13 13 12 11 11 9 7 6 4 3 3 6 6 3 0 1 3 3 1 357 1 2 351 340
166 163 175 165 158 143 122 165 359 24 343 6 18 10 14 15 14 14 15 19 17 17 16 14 12 11 12 6 3 7 9 9 6 6 3 7 9 10 13 10 8 9 358
171 166 172 182 164 158 168 142 96 48 26 32 21 19 20 19 21 22 20 21 21 23 23 19 13 16 13 7 7 7 11 13 9 8 5 7 10 13 15 16 20 21 16
167 168 169 166 164 156 153 126 108 92 59 46 37 30 25 28 28 26 24 25 25 25 25 23 19 21 15 12 11 11 18 15 15 13 10 7 11 13 14 20 17 21 26
166 161 155 158 157 149 146 144 119 99 79 60 52 43 38 37 32 31 30 29 28 29 29 27 25 21 15 14 14 18 19 19 19 18 17 14 11 13 14 17 20 14 21
157 156 153 151 149 148 150 137 119 100 83 69 59 48 42 40 37 36 33 31 33 32 32 30 26 23 17 16 15 19 18 18 18 17 19 17 14 14 16 16 14 11 12
149 146 144 145 145 141 133 122 98 102 89 62 56 52 48 44 42 36 32 33 33 33 30 30 28 23 19 15 17 20 17 15 13 13 12 13 15 16 18 20 15 9 2
143 146 148 146 152 138 131 114 123 105 80 69 64 59 49 45 39 37 34 28 30 31 28 25 23 21 17 14 16 17 19 11 8 10 7 6 9 14 19 21 19 11 3
146 153 146 145 148 145 135 135 121 112 98 82 70 57 49 47 40 38 30 26 23 24 21 18 15 13 12 10 11 13 14 10 7 4 1 1 6 12 17 19 17 15 13
153 156 151 148 146 152 151 136 139 133 111 92 82 58 45 43 36 33 27 24 18 17 14 12 10 7 7 7 6 8 8 8 8 2 359 3 7 11 14 16 16 16 14
158 156 154 153 153 155 152 145 146 141 127 116 102 76 54 40 34 30 25 24 19 14 12 7 4 359 3 4 2 0 2 5 4 0 4 7 10 14 14 14 15 16 14
162 159 158 162 158 159 157 154 154 155 155 152 147 142 62 41 26 35 31 28 24 27 12 4 357 357 359 357 357 357 358 1 359 1 8 12 13 11 12 12 11 11 11
163 166 169 167 166 166 159 157 161 171 174 173 177 186 301 318 332 322 254 323 355 2 8 11 13 357 351 351 354 355 354 359 3 11 11 12 11 10 7 6 5 6 6
Height
822 825 826 827 827 829 830 830 829 829 827 825 823 823 820 819 817 815 814 812 809 806 804 800 796 793 790 786 782 778 774 770 767 759 751 741 736 733 732 734 735 735 736
821 826 827 827 829 831 831 831 830 829 828 827 825 825 822 820 817 815 814 812 809 806 804 800 796 793 789 786 783 779 773 769 768 763 755 735 726 721 724 724 725 725 726
814 823 827 828 830 832 833 832 831 831 829 827 826 825 822 819 817 815 813 811 809 807 804 800 797 794 791 788 783 779 774 767 764 765 763 742 720 716 709 710 713 715 717
814 820 824 826 830 832 833 832 831 831 830 829 828 827 824 821 820 818 815 812 809 807 804 800 797 795 792 788 783 777 773 769 762 759 757 754 752 733 709 699 701 704 706
811 819 823 826 830 832 832 833 832 832 831 831 829 829 828 825 822 819 816 812 810 806 805 802 797 794 791 787 781 775 771 767 763 757 751 745 738 731 720 705 700 698 697
814 821 825 827 829 832 833 832 832 833 833 832 832 830 829 827 824 821 819 815 812 808 805 802 798 795 790 785 779 773 769 764 760 754 749 743 737 727 723 712 700 692 690
816 822 824 827 831 831 832 834 834 834 835 833 831 830 830 828 825 823 821 818 815 811 806 802 798 794 789 783 777 770 764 760 755 750 744 739 732 726 720 714 704 691 685
819 822 828 830 831 833 834 833 834 835 835 833 832 831 830 829 827 825 823 820 819 813 808 802 798 794 788 781 774 767 761 756 753 746 739 732 725 719 715 709 704 688 681
820 827 831 833 834 834 835 835 836 836 836 835 833 832 832 830 827 824 823 820 818 813 808 802 798 793 787 780 774 766 761 756 751 745 737 730 721 713 706 700 698 690 675
822 829 834 835 835 835 836 837 839 838 838 837 835 833 832 829 827 824 823 820 817 813 808 803 799 794 787 782 775 767 761 754 750 744 736 728 721 712 703 694 689 681 674
823 833 837 836 836 836 837 837 839 839 839 839 837 834 832 829 827 825 823 820 817 813 808 804 800 794 788 783 776 767 761 754 749 743 735 728 720 710 701 692 685 677 674
826 830 833 836 838 838 838 838 840 841 839 840 838 833 831 829 827 824 822 820 817 813 810 805 801 795 790 786 777 769 764 757 752 745 738 729 721 712 703 693 686 680 675
830 833 836 837 838 839 838 838 840 841 840 840 837 833 831 829 827 824 823 821 818 814 811 808 803 797 793 788 780 774 768 761 757 750 743 734 725 717 707 697 689 681 675
825 832 837 838 839 839 837 838 841 840 839 839 836 834 832 830 827 826 824 821 818 816 814 810 806 801 797 791 783 777 770 765 760 754 747 738 730 721 712 703 695 686 680
822 828 832 836 837 838 838 839 840 838 839 837 836 834 832 830 828 826 824 822 820 818 816 812 809 805 799 793 787 781 774 768 764 758 751 743 735 726 718 709 702 693 685
815 822 829 832 833 835 837 837 838 838 838 836 835 835 832 830 828 826 824 822 821 819 816 814 811 807 802 796 790 784 778 772 767 759 751 746 737 727 721 715 709 703 697
810 817 824 829 832 834 836 836 837 837 836 836 836 833 833 830 828 826 825 823 822 820 818 816 813 810 804 798 791 786 781 776 771 764 758 752 742 733 725 718 713 710 707
807 814 821 828 831 833 835 837 836 837 837 836 836 835 833 831 830 828 827 825 823 822 820 818 816 812 807 801 793 788 784 779 775 771 765 756 750 742 733 724 719 717 713
806 814 820 826 830 833 835 836 837 837 838 838 837 835 834 833 832 831 830 828 827 825 823 821 818 815 811 805 797 791 787 782 779 774 769 764 757 750 740 732 726 724 718
807 814 821 826 831 834 836 837 838 840 841 839 838 837 837 836 835 834 833 831 829 828 826 823 821 819 815 809 803 797 792 788 783 779 775 770 764 757 749 743 738 732 727
810 817 821 826 832 835 836 838 840 841 840 840 839 839 839 839 838 836 835 833 831 830 828 826 824 821 818 814 808 803 798 794 790 785 780 774 769 763 757 751 746 742 735
811 816 821 826 831 834 836 839 839 840 840 839 840 840 840 840 840 838 837 835 833 832 830 828 826 823 820 816 812 807 803 799 795 790 786 780 775 769 763 757 753 747 740
811 816 820 825 830 834 836 837 839 840 840 841 841 842 842 841 841 840 838 837 835 833 832 829 827 825 822 819 814 810 806 801 797 794 790 784 778 773 767 763 757 751 745
813 816 821 825 829 832 835 836 838 840 841 842 843 843 843 843 842 841 840 839 837 835 833 831 828 827 824 821 816 812 808 803 799 795 791 786 783 778 773 767 763 759 754
813 818 822 826 829 831 833 835 837 839 841 843 844 844 844 843 843 841 841 840 839 838 836 834 832 829 825 823 820 815 810 806 802 798 794 790 785 780 776 772 769 765 760
812 817 822 825 828 830 832 835 837 838 840 842 843 843 843 843 843 842 841 839 838 837 836 834 832 831 828 825 821 817 814 810 805 801 797 794 790 786 782 778 774 770 766